Location: Bemmer
(51.5498°N, 5.6249°E)
Time: 12:58:06
(UTC+00:00)

Cosmos 1666 - Pass Details

Date: 03 March 2021
Orbit: 497 x 518 km, 82.5° (Epoch: 10 April)

Event Time Altitude Azimuth Distance (km) Brightness Sun altitude
Rises 18:30:03 0° 160° (SSE) 2,576 6.0 -11.4°
Reaches altitude 10° 18:32:22 10° 147° (SSE) 1,700 5.0 -11.8°
Maximum altitude 18:35:30 26° 90° (E) 1,014 3.6 -12.3°
Drops below altitude 10° 18:38:40 10° 33° (NNE) 1,718 5.1 -12.8°
Sets 18:41:01 0° 20° (NNE) 2,611 6.1 -13.1°
